User: anonymous   Login
Location: Slidell
(30.2789°N, 89.7378°W)
Time: 00:35:38
(UTC-05:00)
Language:

Cosmos 2360 Rocket - Orbit

View from above orbital plane
View from above orbital plane
View from above satellite
View from above satellite

Ground track
Ground track

The orbit data is extracted from the following two-line orbital elements,

1 25407U 98045B   15116.78310446 -.00000191  00000-0 -73207-4 0  9997
2 25407 071.0121 245.5576 0009505 307.8495 052.1767 14.15711031865440
Epoch (UTC): 26 April 2015 18:47:40
Eccentricity: 0.0009505
inclination: 71.0121°
perigee height: 833 km
apogee height: 847 km
right ascension of ascending node: 245.5576°
argument of perigee: 307.8495°
revolutions per day: 14.15711031
mean anomaly at epoch: 52.1767°
orbit number at epoch: 86544

The dashed part of the orbit path shows where the satellite is in the earth's shadow,  

DLR